Torna al catalogo

SL-8 DEB *

AttivoLEO
NORAD 14802·DEBRIS·🇷🇺 Russia

Lanciato Jul 1, 1977 da Plesetsk Cosmodrome

Loading…

Prossimi Passaggi (prossime 24 ore)

TLE

AggiornatoSource: Space-Track

Epoca: Sep 14, 2026, 12:59 UTC

1 14802U 77059C   26257.54157310  .00002911  00000-0  39247-3 0  9992
2 14802  74.0518  34.0616 0008993 123.7402   2.0183 14.79614617380315

Traccia SL-8 DEB * in tempo reale con AllMySat

Download on the App Store